(197288) = 2000 CP16 = 2003 WW115

Discovered at Socorro on 2003-11-20 by LINEAR.

Orbit

Orbit type: Main Belt

Note: WebGL enabled browser required.

epoch2023-02-25.0
epoch JD2460000.5
perihelion date2021-05-30.63127
perihelion JD2459365.13127
argument of perihelion (°)105.62277
ascending node (°)288.64900
inclination (°)5.08535
eccentricity0.1495000
perihelion distance (AU)2.3027891
Tisserand w.r.t. Jupiter3.3
ΔV w.r.t. Earth (km/sec)9.7
semimajor axis (AU)2.7075711
mean anomaly (°)140.55940
mean daily motion (°/day)0.22122490
aphelion distance (AU)3.112
period (years)4.46
P-vector [x]0.82278403
P-vector [y]0.48158327
P-vector [z]0.30183438
Q-vector [x]-0.56211464
Q-vector [y]0.76799126
Q-vector [z]0.30694716
absolute magnitude16.19
phase slope0.15
uncertainty0
referenceMPO 745323
observations used508
oppositions17
arc length (days)9000
first opposition used1998
last opposition used2023
residual rms (arc-secs)0.81
perturbers coarse indicatorM-v
perturbers precise indicator003Ek
first observation date used1998-09-19.0
last observation date used2023-05-11.0
computer nameMPCLINUX
JD of orbit computation2456789.239274
perihelion JD uncertainty (days)1.3544E-04
argument of perihelion uncertainty (°)8.3335E-05
ascending node uncertainty (°)7.6499E-05
inclination uncertainty (°)6.5524E-06
eccentricity uncertainty 5.7347E-08
perihelion distance uncertainty (AU)1.5246E-07
Minimum Orbit Intersection Distances (in AU)
for orbit epoch: 2460000.5, reference: E2023-JB1
Mercury1.97817
Venus1.58713
Earth1.31413
Mars0.84102
Jupiter2.33109
Saturn6.46745
Uranus15.4487
Neptune27.5377

Observations

525 total observations over interval: 1998 09 19.244761 – 2023 05 11.330047
These data are available for download (format description).

Date (UT) J2000 RA J2000 Dec Magn Location Ref
1998 09 19.244761 22 43 22.801 -00 06 32.36 19.28 V 645 – Apache Point-Sloan Digital Sky Survey MPS 92859
1998 09 19.248233 22 43 22.629 -00 06 33.28 19.94   645 – Apache Point-Sloan Digital Sky Survey MPS 92859
2000 02 02.26938 08 26 47.89 +16 31 28.4 19.2   704 – Lincoln Laboratory ETS, New Mexico MPS 10329
2000 02 02.28390 08 26 47.00 +16 31 30.5 19.4   704 – Lincoln Laboratory ETS, New Mexico MPS 10329
2000 02 02.29824 08 26 46.17 +16 31 32.1 18.9   704 – Lincoln Laboratory ETS, New Mexico MPS 10329
2000 02 02.31296 08 26 45.29 +16 31 32.3 19.3   704 – Lincoln Laboratory ETS, New Mexico MPS 10329
2000 02 03.24692 08 25 51.75 +16 33 11.7 19.4   704 – Lincoln Laboratory ETS, New Mexico MPS 10329
2000 02 03.26156 08 25 50.89 +16 33 13.8 19.3   704 – Lincoln Laboratory ETS, New Mexico MPS 10330
2000 02 03.29085 08 25 49.24 +16 33 18.1 19.3   704 – Lincoln Laboratory ETS, New Mexico MPS 10330
2003 11 03.31821 04 52 08.04 +28 39 06.7 19.2   704 – Lincoln Laboratory ETS, New Mexico MPS 92859
2003 11 03.33018 04 52 07.59 +28 39 06.7 19.1   704 – Lincoln Laboratory ETS, New Mexico MPS 92859
2003 11 03.34212 04 52 07.20 +28 39 06.3 19.5   704 – Lincoln Laboratory ETS, New Mexico MPS 92859
2003 11 03.35406 04 52 06.79 +28 39 03.9 19.3   704 – Lincoln Laboratory ETS, New Mexico MPS 92859
2003 11 03.36618 04 52 06.28 +28 39 04.3 19.1   704 – Lincoln Laboratory ETS, New Mexico MPS 92859
2003 11 20.32945 04 39 06.63 +28 06 23.1 19.5   704 – Lincoln Laboratory ETS, New Mexico MPS 92107
2003 11 20.34236 04 39 05.83 +28 06 20.7 19.5   704 – Lincoln Laboratory ETS, New Mexico MPS 92107
2003 11 20.35531 04 39 05.19 +28 06 18.0 20.0   704 – Lincoln Laboratory ETS, New Mexico MPS 92107
2003 11 20.38135 04 39 03.51 +28 06 13.7 19.7   704 – Lincoln Laboratory ETS, New Mexico MPS 92107
2003 11 24.25616 04 35 17.04 +27 53 33.2 19.1   704 – Lincoln Laboratory ETS, New Mexico MPS 92107
2003 11 24.26895 04 35 16.28 +27 53 30.8 19.6   704 – Lincoln Laboratory ETS, New Mexico MPS 92107
2003 11 24.28154 04 35 15.47 +27 53 28.1 19.2   704 – Lincoln Laboratory ETS, New Mexico MPS 92107
2003 11 24.29405 04 35 14.66 +27 53 25.3 19.6   704 – Lincoln Laboratory ETS, New Mexico MPS 92107
2003 11 24.30694 04 35 13.84 +27 53 22.8 19.5   704 – Lincoln Laboratory ETS, New Mexico MPS 92107
2003 11 26.24628 04 33 17.37 +27 46 20.1 19.1   704 – Lincoln Laboratory ETS, New Mexico MPS 92107
2003 11 26.25882 04 33 16.63 +27 46 16.7 19.6   704 – Lincoln Laboratory ETS, New Mexico MPS 92107
2003 11 26.28143 04 33 15.11 +27 46 11.9 19.4   704 – Lincoln Laboratory ETS, New Mexico MPS 92107
2003 11 29.27991 04 30 12.39 +27 34 30.7 19.8   704 – Lincoln Laboratory ETS, New Mexico MPS 92859
2003 11 29.29265 04 30 11.49 +27 34 26.7 19.7   704 – Lincoln Laboratory ETS, New Mexico MPS 92859
2003 11 29.30553 04 30 10.56 +27 34 23.1 19.7   704 – Lincoln Laboratory ETS, New Mexico MPS 92859
2003 12 04.27226 04 25 08.69 +27 13 03.6 19.6   704 – Lincoln Laboratory ETS, New Mexico MPS 92859
2003 12 04.28445 04 25 07.84 +27 13 01.6 19.5   704 – Lincoln Laboratory ETS, New Mexico MPS 92859
2003 12 04.29663 04 25 07.12 +27 12 57.1 19.6   704 – Lincoln Laboratory ETS, New Mexico MPS 92859
2003 12 04.30884 04 25 06.36 +27 12 54.9 19.5   704 – Lincoln Laboratory ETS, New Mexico MPS 92859
2003 12 04.32097 04 25 05.51 +27 12 50.6 19.8   704 – Lincoln Laboratory ETS, New Mexico MPS 92859
2003 12 18.20920 04 12 29.71 +26 05 31.0 19.3   704 – Lincoln Laboratory ETS, New Mexico MPS 93786
2003 12 18.23807 04 12 28.15 +26 05 20.8 20.1   704 – Lincoln Laboratory ETS, New Mexico MPS 93786
2003 12 18.25418 04 12 27.42 +26 05 16.4 19.5   704 – Lincoln Laboratory ETS, New Mexico MPS 93786
2003 12 18.26902 04 12 26.77 +26 05 12.2 19.4   704 – Lincoln Laboratory ETS, New Mexico MPS 93786
2003 12 20.18567 04 11 00.85 +25 55 40.1 18.8   704 – Lincoln Laboratory ETS, New Mexico MPS 94793
2003 12 20.19933 04 11 00.29 +25 55 35.9 19.3   704 – Lincoln Laboratory ETS, New Mexico MPS 94793
2003 12 20.22631 04 10 58.98 +25 55 28.6 19.7   704 – Lincoln Laboratory ETS, New Mexico MPS 94793
2003 12 20.23950 04 10 58.30 +25 55 23.6 19.6   704 – Lincoln Laboratory ETS, New Mexico MPS 94793
2003 12 22.20549 04 09 36.32 +25 45 43.3 19.3   704 – Lincoln Laboratory ETS, New Mexico MPS 94793
2003 12 22.21845 04 09 36.00 +25 45 39.5 20.1   704 – Lincoln Laboratory ETS, New Mexico MPS 94793
2003 12 22.23250 04 09 35.37 +25 45 34.7 20.0   704 – Lincoln Laboratory ETS, New Mexico MPS 94793
2003 12 22.24998 04 09 34.63 +25 45 27.9 19.8   704 – Lincoln Laboratory ETS, New Mexico MPS 94793
2003 12 25.11331 04 07 47.12 +25 31 35.7 20.1 V 691 – Steward Observatory, Kitt Peak-Spacewatch MPS 94793
2003 12 25.14110 04 07 46.08 +25 31 27.9 19.9 V 691 – Steward Observatory, Kitt Peak-Spacewatch MPS 94793
2003 12 25.16857 04 07 45.07 +25 31 20.2 19.7 V 691 – Steward Observatory, Kitt Peak-Spacewatch MPS 94793
2003 12 27.21627 04 06 37.05 +25 21 39.6 19.8   704 – Lincoln Laboratory ETS, New Mexico MPS 95840
2003 12 27.22934 04 06 36.56 +25 21 36.3 19.9   704 – Lincoln Laboratory ETS, New Mexico MPS 95840
2003 12 27.24254 04 06 36.07 +25 21 32.1 19.8   704 – Lincoln Laboratory ETS, New Mexico MPS 95840
2003 12 27.25593 04 06 35.67 +25 21 28.9 19.8   704 – Lincoln Laboratory ETS, New Mexico MPS 95840
2005 03 08.28057 11 39 32.83 -05 14 44.4 20.5 V 691 – Steward Observatory, Kitt Peak-Spacewatch MPS 127992
2005 03 08.30872 11 39 31.37 -05 14 37.1 20.2 V 691 – Steward Observatory, Kitt Peak-Spacewatch MPS 127992
2005 03 08.33414 11 39 30.05 -05 14 30.4 20.4 V 691 – Steward Observatory, Kitt Peak-Spacewatch MPS 127992
2007 09 02.42290 23 53 12.98 +07 36 04.5 18.6 V G96 – Mt. Lemmon Survey MPS 214426
2007 09 02.42797 23 53 12.73 +07 36 04.5 18.7 V G96 – Mt. Lemmon Survey MPS 214426
2007 09 02.43294 23 53 12.55 +07 36 03.3 18.9 V G96 – Mt. Lemmon Survey MPS 214426
2007 09 02.43782 23 53 12.33 +07 36 02.6 19.4 V G96 – Mt. Lemmon Survey MPS 214426
2007 09 11.27425 23 46 32.84 +07 15 05.5 18.9 V 703 – Catalina Sky Survey MPS 215110
2007 09 11.28192 23 46 32.44 +07 15 04.3 19.0 V 703 – Catalina Sky Survey MPS 215110
2007 09 11.28961 23 46 32.01 +07 15 03.3 18.9 V 703 – Catalina Sky Survey MPS 215110
2007 09 11.29732 23 46 31.62 +07 15 01.1 18.9 V 703 – Catalina Sky Survey MPS 215110
2007 09 14.24228 23 44 06.30 +07 05 07.7 19.7   704 – Lincoln Laboratory ETS, New Mexico MPS 216179
2007 09 14.25397 23 44 05.64 +07 05 04.2 20.1   704 – Lincoln Laboratory ETS, New Mexico MPS 216179
2007 09 14.26566 23 44 05.11 +07 05 01.0 19.8   704 – Lincoln Laboratory ETS, New Mexico MPS 216179
2007 09 14.27741 23 44 04.49 +07 04 58.0 19.8   704 – Lincoln Laboratory ETS, New Mexico MPS 216179
2007 09 14.28912 23 44 03.82 +07 04 57.1 19.9   704 – Lincoln Laboratory ETS, New Mexico MPS 216179
2007 09 14.30130 23 44 03.21 +07 04 53.8 18.6 R 699 – Lowell Observatory-LONEOS MPS 216179
2007 09 14.32414 23 44 02.09 +07 04 49.6   699 – Lowell Observatory-LONEOS MPS 216179
2007 09 14.34699 23 44 00.91 +07 04 43.4   699 – Lowell Observatory-LONEOS MPS 216179
2007 09 14.36983 23 43 59.70 +07 04 40.4   699 – Lowell Observatory-LONEOS MPS 216179
2007 09 17.23823 23 41 35.15 +06 53 48.0 18.8   704 – Lincoln Laboratory ETS, New Mexico MPS 216179
2007 09 17.25016 23 41 34.56 +06 53 44.5 19.2   704 – Lincoln Laboratory ETS, New Mexico MPS 216179
2007 09 17.26208 23 41 33.91 +06 53 41.9 19.6   704 – Lincoln Laboratory ETS, New Mexico MPS 216179
2007 09 17.28605 23 41 32.65 +06 53 35.5 19.6   704 – Lincoln Laboratory ETS, New Mexico MPS 216179
2007 09 22.24566 23 37 20.57 +06 32 25.9 19.3   704 – Lincoln Laboratory ETS, New Mexico MPS 217753
2007 09 22.25783 23 37 19.96 +06 32 22.4 19.4   704 – Lincoln Laboratory ETS, New Mexico MPS 217753
2007 09 22.27014 23 37 19.38 +06 32 19.1 19.3   704 – Lincoln Laboratory ETS, New Mexico MPS 217753
2007 09 22.28232 23 37 18.65 +06 32 16.9 19.4   704 – Lincoln Laboratory ETS, New Mexico MPS 217753
2007 10 07.20212 23 25 45.73 +05 18 58.4 19.4 V 703 – Catalina Sky Survey MPS 218618
2007 10 07.20905 23 25 45.48 +05 18 56.9 19.3 V 703 – Catalina Sky Survey MPS 218618
2007 10 07.21603 23 25 45.22 +05 18 54.2 19.4 V 703 – Catalina Sky Survey MPS 218618
